Change the Weather History Date:

Wednesday, August 14, 2013

  Actual Average Record
Temperature  
Mean Temperature 77 °F -  
Max Temperature 81 °F 90 °F 98 °F (1999)
Min Temperature 73 °F 73 °F 60 °F (2004)
Cooling Degree Days 12    
Growing Degree Days 27 (Base 50)    
Moisture  
Dew Point 73 °F    
Average Humidity 89    
Maximum Humidity 96    
Minimum Humidity 74    
Precipitation  
Precipitation 0.44 in - - ()
Sea Level Pressure  
Sea Level Pressure 29.95 in    
Wind  
Wind Speed 3 mph (WNW)    
Max Wind Speed 12 mph    
Max Gust Speed -    
Visibility 10 miles    
Events Rain    
Averages and records for this station are not official NWS values.
T = Trace of Precipitation, MM = Missing Value Source: NWS Daily Summary

Daily Weather History Graph

Daily Weather History Graph

Search for Another Location

Airport or City:

Trip Planner

Search our weather history database for the weather conditions in past years. The results will help you decide how hot, cold, wet, or windy it might be!

Date:

Astronomy

Aug. 14, 2013 Rise Set
Actual Time 6:22 AM CDT 7:38 PM CDT
Civil Twilight 5:57 AM CDT 8:03 PM CDT
Nautical Twilight 5:27 AM CDT 8:33 PM CDT
Astronomical Twilight 4:55 AM CDT 9:05 PM CDT
Moon 1:45 PM CDT (8/14) No Moon Set
Length of Visible Light 14h 06m
Length of Day
13h 15m
First Quarter, 53% of the Moon is Illuminated
Aug 14
First Quarter
Aug 20
Full
Aug 28
Last Quarter
Sep 5
New
Sep 12
First Quarter

Hourly Weather History & Observations

Time (CDT) Temp. Heat Index Dew Point Humidity Pressure Visibility Wind Dir Wind Speed Gust Speed Precip Events Conditions
12:53 AM 77.0 °F - 73.9 °F 90% 29.94 in 10.0 mi Calm Calm - N/A   Clear
1:53 AM 75.9 °F - 73.0 °F 91% 29.92 in 10.0 mi Calm Calm - N/A   Clear
2:53 AM 75.9 °F - 73.0 °F 91% 29.92 in 10.0 mi NW 5.8 mph - N/A   Clear
3:53 AM 75.9 °F - 73.0 °F 91% 29.94 in 10.0 mi Calm Calm - N/A   Clear
4:53 AM 75.9 °F - 73.0 °F 91% 29.94 in 10.0 mi Calm Calm - N/A   Mostly Cloudy
5:53 AM 75.9 °F - 73.0 °F 91% 29.95 in 10.0 mi Calm Calm - N/A   Overcast
6:53 AM 75.9 °F - 73.0 °F 91% 29.96 in 10.0 mi WNW 4.6 mph - N/A   Mostly Cloudy
7:53 AM 77.0 °F - 73.9 °F 90% 29.95 in 10.0 mi NNW 4.6 mph - N/A   Clear
7:56 AM 77.0 °F - 73.4 °F 89% 29.95 in 10.0 mi NNW 5.8 mph - N/A   Partly Cloudy
8:53 AM 81.0 °F 85.2 °F 72.0 °F 74% 29.97 in 10.0 mi NW 9.2 mph - N/A   Mostly Cloudy
9:53 AM 75.9 °F - 71.1 °F 85% 29.99 in 10.0 mi NW 11.5 mph - 0.00 in Rain Light Rain
10:53 AM 73.9 °F - 72.0 °F 93% 29.98 in 4.0 mi NW 4.6 mph - 0.19 in Rain Rain
11:53 AM 75.0 °F - 72.0 °F 90% 29.98 in 4.0 mi NW 9.2 mph - 0.16 in Rain Rain
12:53 PM 75.9 °F - 73.0 °F 91% 29.96 in 10.0 mi WNW 4.6 mph - 0.08 in Rain Light Rain
1:53 PM 80.1 °F 84.5 °F 73.9 °F 81% 29.94 in 10.0 mi NW 11.5 mph - 0.00 in   Partly Cloudy
2:53 PM 80.1 °F 85.1 °F 75.0 °F 85% 29.92 in 10.0 mi WNW 3.5 mph - 0.00 in Rain Light Rain
4:53 PM 77.0 °F - 73.9 °F 90% 29.95 in 10.0 mi West 6.9 mph - N/A Rain Light Rain
5:15 PM 77.0 °F - 73.4 °F 89% 29.95 in 10.0 mi West 5.8 mph - 0.00 in Rain Light Rain
5:53 PM 77.0 °F - 73.0 °F 88% 29.93 in 10.0 mi West 5.8 mph - 0.01 in Rain Light Rain
6:53 PM 78.1 °F - 73.9 °F 87% 29.92 in 10.0 mi WNW 5.8 mph - 0.00 in   Partly Cloudy
7:37 PM 77.0 °F - 73.4 °F 89% 29.93 in 10.0 mi NW 4.6 mph - N/A   Mostly Cloudy
7:53 PM 77.0 °F - 73.9 °F 90% 29.94 in 10.0 mi WNW 3.5 mph - N/A   Mostly Cloudy
8:53 PM 77.0 °F - 73.9 °F 90% 29.94 in 10.0 mi Calm Calm - N/A   Partly Cloudy
9:53 PM 77.0 °F - 73.9 °F 90% 29.95 in 10.0 mi Calm Calm - N/A   Mostly Cloudy
10:53 PM 75.0 °F - 73.9 °F 96% 29.95 in 10.0 mi Calm Calm - N/A   Scattered Clouds
11:53 PM 75.0 °F - 73.0 °F 94% 29.96 in 10.0 mi Calm Calm - N/A   Clear